Simultaneous Nadir Overpasses (SNOs) Predictions

Prediction of SNOs between TERRA and METOP-C Satellite Orbit:

Table of predicted SNOs for the next 14.0 days since TLE Epoch: 9/12/2020
Index Date (TERRA) Time (TERRA) Lat,Lon (TERRA) SZA (TERRA ) Date (METOP-C) Time (METOP-C) Lat,Lon (METOP-C) SZA (METOP-C ) Distance(km) Time Diff (sec)
1 09/12/2020 16:58:43 -81.32, 152.94 99.54 09/12/2020 16:58:24 -81.32, 152.82 99.57 2.14 19
2 09/12/2020 17:48:09 81.33, -39.23 80.50 09/12/2020 17:49:03 81.33, -39.15 80.54 1.51 54
3 09/15/2020 12:32:58 -81.32,-140.69 98.45 09/15/2020 12:32:45 -81.32,-140.84 98.47 2.44 13
4 09/15/2020 13:22:24 81.33, 27.10 81.59 09/15/2020 13:23:24 81.32, 27.12 81.62 0.43 60
5 09/18/2020 08:07:13 -81.31, -74.35 97.36 09/18/2020 08:07:06 -81.31, -74.50 97.37 2.51 7
6 09/18/2020 08:56:39 81.32, 93.41 82.68 09/18/2020 08:57:45 81.32, 93.39 82.71 0.48 66
7 09/21/2020 02:52:21 80.80, 176.82 82.55 09/21/2020 02:51:19 80.89, 171.53 82.06 94.19 62
8 09/21/2020 03:41:26 -81.33, -7.66 96.20 09/21/2020 03:41:25 -81.32, -7.78 96.22 2.27 1
9 09/21/2020 04:30:52 81.33, 160.07 83.83 09/21/2020 04:32:04 81.33, 160.04 83.86 0.84 72
10 09/23/2020 22:26:14 81.32,-108.97 84.89 09/23/2020 22:25:05 81.32,-108.97 84.85 0.58 69



Historial Predications of SNOs between TERRA and METOP-C
